Location: ???????
(55.8930°N, 38.0586°E)
Time: 22:57:59
(UTC+00:00)

Envisat - Pass Details

Date: 14 April 2024
Orbit: 762 x 764 km, 98.3° (Epoch: 23 May)

Event Time Altitude Azimuth Distance (km) Brightness Sun altitude
Rises 00:59:54 0° 16° (NNE) 3,245 7.2 -11.3°
Reaches altitude 10° 01:02:14 10° 18° (NNE) 2,314 6.4 -11.0°
Maximum altitude 01:07:20 74° 104° (ESE) 798 3.2 -10.5°
Drops below altitude 10° 01:12:24 10° 190° (S) 2,296 5.1 -9.9°
Enters shadow 01:14:10 - 192° (SSW) 3,008 5.7 -9.7°
